Temp
14 14 13 13 11 10 10 10 9 8 7 7 7 6 6 5 4 4 3 3 1 1
15 14 13 12 12 10 10 9 8 7 7 7 6 5 4 4 3 2 2 2 1 0
13 14 13 12 10 10 9 9 8 8 7 6 6 5 4 4 2 1 1 0 -0 -1
12 12 11 10 10 10 10 9 9 8 7 7 5 3 2 2 1 0 -0 -1 -1 -1
11 11 10 10 10 10 9 9 6 6 6 5 4 2 2 1 1 0 -1 -1 -1 -1
10 10 10 9 9 9 9 7 7 5 5 3 2 2 1 1 0 -1 -1 -1 -1 -1
10 10 9 9 9 8 7 7 6 4 2 2 1 0 0 0 -1 -1 -1 -1 -1 -1
9 9 8 8 7 6 6 5 3 2 2 1 1 0 -0 -0 -1 -1 -1 -1 -1 -1
8 7 7 6 5 5 4 3 2 1 1 1 1 -0 -0 -1 -2 -2 -1 -1 -1 -1
6 6 5 4 3 3 2 1 1 1 1 0 -0 -1 -1 -1 -2 -2 -2 -1 -1 -1
4 4 3 2 2 1 1 1 0 -0 -0 -1 -2 -1 -1 -2 -2 -3 -2 -2 -2 -2
3 3 2 1 1 1 0 -0 -0 -2 -2 -2 -2 -2 -1 -2 -2 -3 -3 -3 -3 -3
0 1 1 1 0 -1 -2 -2 -2 -2 -1 -1 -1 -2 -2 -2 -3 -4 -4 -4 -4 -4
1 1 -0 -1 -1 -1 -2 -1 -1 -1 -1 -2 -3 -3 -3 -3 -4 -5 -6 -6 -5 -5
Height
1521 1524 1525 1525 1525 1528 1529 1531 1530 1532 1535 1537 1539 1540 1542 1541 1545 1546 1544 1545 1545 1545
1513 1517 1518 1520 1519 1521 1524 1525 1524 1527 1530 1531 1534 1535 1538 1539 1539 1540 1539 1540 1539 1540
1505 1509 1512 1512 1513 1516 1518 1518 1519 1521 1524 1526 1528 1529 1533 1533 1534 1535 1535 1536 1536 1538
1500 1503 1506 1507 1508 1511 1511 1513 1515 1517 1518 1521 1523 1526 1529 1530 1530 1530 1531 1532 1531 1532
1495 1497 1500 1501 1503 1504 1504 1506 1508 1509 1515 1515 1514 1520 1524 1525 1526 1525 1526 1528 1527 1527
1491 1492 1494 1495 1496 1499 1500 1499 1504 1507 1509 1511 1517 1519 1520 1520 1520 1521 1522 1522 1521 1521
1487 1489 1491 1492 1493 1495 1498 1501 1503 1505 1508 1512 1515 1518 1516 1515 1515 1515 1515 1515 1515 1514
1484 1486 1487 1488 1490 1492 1495 1498 1501 1505 1508 1510 1512 1513 1513 1513 1513 1510 1510 1509 1508 1508
1483 1485 1486 1487 1490 1492 1495 1498 1501 1504 1506 1507 1507 1507 1507 1507 1507 1507 1505 1504 1503 1501
1482 1484 1486 1488 1490 1492 1495 1499 1502 1503 1503 1502 1502 1502 1502 1502 1502 1501 1500 1498 1496 1494
1482 1484 1486 1489 1491 1494 1497 1498 1499 1499 1498 1498 1499 1498 1498 1497 1495 1493 1491 1489 1487 1485
1485 1486 1488 1490 1492 1493 1493 1494 1494 1496 1495 1495 1495 1494 1492 1491 1488 1484 1482 1480 1478 1476
1486 1487 1488 1489 1489 1490 1492 1492 1492 1492 1491 1490 1489 1488 1486 1484 1480 1476 1473 1470 1467 1465
1485 1486 1486 1487 1488 1488 1489 1488 1488 1487 1486 1485 1483 1481 1477 1476 1472 1468 1463 1459 1455 1454
Wind_Speed
30 25 22 20 31 33 33 32 32 30 31 30 32 33 30 28 22 22 18 15 13 13
32 26 21 27 33 31 28 31 27 28 31 33 29 33 29 25 22 19 14 13 15 13
32 28 33 33 30 27 28 31 29 30 29 30 35 32 29 25 22 15 13 15 13 13
26 26 27 29 27 24 27 32 27 24 25 28 34 29 24 21 14 15 15 14 15 15
18 19 22 21 18 21 30 30 26 25 19 32 32 27 26 12 14 15 14 16 15 17
15 16 18 21 24 26 28 26 28 20 27 29 22 18 11 12 14 15 16 16 18 18
13 13 13 14 16 16 10 14 20 25 19 18 15 12 13 16 14 17 17 18 19 20
7 5 7 8 9 12 12 11 15 15 16 11 9 13 19 18 20 17 19 20 21 23
4 5 5 6 9 9 11 13 16 13 6 11 15 18 19 19 18 20 20 23 24 25
8 8 9 10 10 11 11 8 4 9 14 15 20 19 12 13 19 20 22 26 27 28
11 11 11 10 8 3 2 7 11 14 18 14 10 13 15 19 24 25 25 26 27 29
10 6 5 3 1 5 8 10 10 7 7 9 12 19 21 23 26 25 27 28 29 30
9 5 1 4 4 2 2 3 6 10 13 17 19 21 22 23 26 28 28 29 30 32
3 1 1 1 1 3 5 9 12 15 17 19 19 21 25 25 27 26 30 30 33 34
Wind_Direction
240 237 249 249 262 259 258 257 249 244 236 232 234 235 242 236 249 256 272 274 272 260
241 235 233 242 257 262 256 261 247 240 234 237 236 238 235 236 251 258 270 273 268 253
250 243 233 248 262 264 265 251 249 245 241 236 239 239 237 244 250 256 270 268 254 251
252 254 254 255 265 261 268 257 254 241 234 250 241 235 231 243 254 277 273 247 245 251
253 256 257 261 256 247 249 244 231 223 260 247 232 227 240 251 275 275 252 248 251 257
245 256 257 251 252 253 248 237 242 215 249 222 222 232 250 279 274 250 255 253 256 257
249 254 260 260 257 247 233 242 234 226 216 217 218 270 299 298 263 259 255 255 257 259
240 234 238 243 239 214 218 216 211 210 206 220 268 287 301 280 271 265 261 262 266 267
168 177 179 193 178 181 182 188 194 202 241 289 285 291 291 280 270 270 268 271 272 272
143 148 153 162 174 188 192 195 217 280 289 290 294 291 277 270 273 277 273 273 274 274
141 144 152 173 182 183 257 292 295 288 291 292 284 282 279 280 280 282 278 275 274 272
134 145 160 131 280 293 299 291 291 280 280 286 287 286 292 290 288 285 282 279 276 274
125 127 187 281 288 269 228 266 284 291 295 295 297 297 296 295 292 290 289 286 281 278
152 201 145 147 229 290 299 302 302 302 299 299 297 297 292 291 289 292 287 285 284 282